TimeCST,TemperatureF,Dew PointF,Humidity,Sea Level PressureIn,VisibilityMPH,Wind Direction,Wind SpeedMPH,Gust SpeedMPH,PrecipitationIn,Events,Conditions,WindDirDegrees,DateUTC
12:18 AM,10.4,1.4,67,30.53,10.0,Variable,5.8,-,N/A,,Overcast,0,2013-11-23 06:18:00
12:53 AM,9.0,1.9,73,30.60,6.0,Variable,4.6,-,0.00,Snow,Light Snow,0,2013-11-23 06:53:00
1:53 AM,8.1,1.0,73,30.63,9.0,Variable,5.8,-,0.00,,Overcast,0,2013-11-23 07:53:00
2:51 AM,8.6,3.2,79,30.57,2.0,Variable,3.5,-,0.00,Snow,Light Snow,0,2013-11-23 08:51:00
2:53 AM,8.1,3.0,80,30.65,2.0,Variable,4.6,-,0.00,Snow,Light Snow,0,2013-11-23 08:53:00
3:11 AM,8.6,3.2,79,30.57,3.0,Variable,4.6,-,0.00,Snow,Light Snow,0,2013-11-23 09:11:00
3:19 AM,8.6,3.2,79,30.57,1.8,Variable,4.6,-,0.00,Snow,Light Snow,0,2013-11-23 09:19:00
3:27 AM,8.6,3.2,79,30.58,2.0,Variable,3.5,-,0.00,Snow,Light Snow,0,2013-11-23 09:27:00
3:37 AM,8.6,3.2,79,30.58,1.8,Variable,4.6,-,0.00,Snow,Light Snow,0,2013-11-23 09:37:00
3:43 AM,10.4,3.2,73,30.58,2.5,Variable,5.8,-,0.00,Snow,Light Snow,0,2013-11-23 09:43:00
3:51 AM,10.4,1.4,67,30.59,9.0,NNW,9.2,-,0.00,,Overcast,340,2013-11-23 09:51:00
3:53 AM,10.0,1.0,67,30.66,9.0,NW,8.1,-,0.00,,Overcast,320,2013-11-23 09:53:00
4:53 AM,9.0,-0.9,64,30.69,10.0,Variable,6.9,-,N/A,,Overcast,0,2013-11-23 10:53:00
5:39 AM,8.6,-2.2,62,30.63,10.0,Variable,6.9,19.6,0.00,,Overcast,0,2013-11-23 11:39:00
5:53 AM,9.0,-2.0,61,30.71,10.0,Variable,6.9,-,0.00,,Overcast,0,2013-11-23 11:53:00
6:53 AM,9.0,-2.0,61,30.73,10.0,Variable,4.6,-,0.00,,Overcast,0,2013-11-23 12:53:00
7:53 AM,9.0,-2.0,61,30.76,10.0,Variable,5.8,-,N/A,,Mostly Cloudy,0,2013-11-23 13:53:00
8:53 AM,10.9,-0.9,59,30.78,10.0,Variable,5.8,-,N/A,,Mostly Cloudy,0,2013-11-23 14:53:00
9:04 AM,10.4,-0.4,62,30.70,10.0,Variable,6.9,-,N/A,,Mostly Cloudy,0,2013-11-23 15:04:00
9:46 AM,8.6,-2.2,62,30.71,10.0,Variable,4.6,-,N/A,,Scattered Clouds,0,2013-11-23 15:46:00
9:53 AM,10.0,-2.9,56,30.81,10.0,Variable,6.9,-,N/A,,Partly Cloudy,0,2013-11-23 15:53:00
10:53 AM,12.0,-2.0,53,30.80,10.0,NW,8.1,18.4,N/A,,Partly Cloudy,320,2013-11-23 16:53:00
11:53 AM,12.9,-2.9,49,30.80,10.0,NW,8.1,-,N/A,,Scattered Clouds,310,2013-11-23 17:53:00
12:53 PM,12.0,-4.0,49,30.79,10.0,Variable,5.8,-,N/A,,Clear,0,2013-11-23 18:53:00
1:53 PM,15.1,-2.0,47,30.77,10.0,Variable,5.8,-,N/A,,Scattered Clouds,0,2013-11-23 19:53:00
2:53 PM,15.1,-2.9,45,30.76,10.0,Variable,3.5,-,N/A,,Partly Cloudy,0,2013-11-23 20:53:00
3:53 PM,14.0,-2.9,47,30.76,10.0,Variable,5.8,-,N/A,,Clear,0,2013-11-23 21:53:00
4:53 PM,10.0,-2.9,56,30.76,10.0,Calm,Calm,-,N/A,,Clear,0,2013-11-23 22:53:00
5:53 PM,7.0,-2.9,64,30.77,10.0,Calm,Calm,-,N/A,,Clear,0,2013-11-23 23:53:00
6:53 PM,3.0,-2.9,76,30.78,10.0,Calm,Calm,-,N/A,,Clear,0,2013-11-24 00:53:00
7:53 PM,3.9,-2.9,73,30.77,10.0,Calm,Calm,-,N/A,,Clear,0,2013-11-24 01:53:00
8:53 PM,3.0,-5.1,69,30.76,10.0,Calm,Calm,-,N/A,,Clear,0,2013-11-24 02:53:00
9:53 PM,-0.0,-5.1,79,30.75,10.0,Calm,Calm,-,N/A,,Clear,0,2013-11-24 03:53:00
10:53 PM,-0.0,-5.1,79,30.74,10.0,Calm,Calm,-,N/A,,Clear,0,2013-11-24 04:53:00
11:53 PM,-2.0,-7.1,79,30.73,10.0,Calm,Calm,-,N/A,,Clear,0,2013-11-24 05:53:00